Location: Morehouse Lake Observatory
(43.3628°N, 74.6770°W)
Time: 11:35:20
(UTC-04:00)

ISS - Visible Passes

Search period start: 17 October 2019 00:00
Search period end: 27 October 2019 00:00
Orbit: 411 x 421 km, 51.6° (Epoch: 17 October)

Date Brightness Start Highest point End Pass type
(mag) Time Alt. Az. Time Alt. Az. Time Alt. Az.
23 Oct -0.7 06:13:55 10° SSE 06:15:50 14° SE 06:17:44 10° E visible
25 Oct -2.3 06:11:58 10° SSW 06:15:05 37° SE 06:18:13 10° ENE visible
26 Oct -1.6 05:25:37 19° SSE 05:26:38 22° SE 05:29:19 10° E visible
